Other Public Products
Issued by NWS Grand Forks, ND

Home | Current Version | Previous Version | Text Only | Print | Product List | Glossary On
Versions: 1 2 3 4 5 6 7 8 9 10 11 12 13 14 15 16 17 18 19 20 21 22 23 24 25 26 27 28 29 30 31 32 33 34 35 36 37 38 39 40 41 42 43 44 45 46 47 48 49 50
000
FPUS83 KFGF 301210
OPUFGF
PRAIRIE TO PINES WEATHER ROUNDUP
NATIONAL WEATHER SERVICE EASTERN NORTH DAKOTA/GRAND FORKS ND
700 AM CDT SAT APR 30 2016

 **SATELLITE DATA USED TO AUGMENT SKY COVER AT AUTOMATED STATIONS**
 *****  WEATHER ACROSS EASTERN NORTH DAKOTA  *****

CITY           SKY/WX    TMP DP  RH WIND       PRES   REMARKS
GRAND FORKS    CLEAR     38  31  76 E8        30.26R
6HR MIN TEMP:  36; 6HR MAX TEMP:  47;

GRAND FORKS AF CLEAR     31  28  87 NE7       30.27R WCI  25
GRAND CITY NWS NOT AVBL
BUXTON         NOT AVBL
DEVILS LAKE    CLEAR     38  31  76 NE8       30.26R
6HR MIN TEMP:  36; 6HR MAX TEMP:  42;

FARGO          CLEAR     41  31  67 NE9       30.20R
6HR MIN TEMP:  40; 6HR MAX TEMP:  50;

WAHPETON ARPT  CLOUDY    41  32  70 E12       30.15S
$$

 *****  WEATHER ACROSS CENTRAL AND WESTERN NORTH DAKOTA  *****

CITY           SKY/WX    TMP DP  RH WIND       PRES   REMARKS
JAMESTOWN      CLEAR     38  32  79 NE9       30.18R
6HR MIN TEMP:  37; 6HR MAX TEMP:  45;

BISMARCK       CLOUDY    40  32  73 NE12      30.16S
6HR MIN TEMP:  36; 6HR MAX TEMP:  43;

MINOT          CLEAR     35  25  66 NW5       30.25R
6HR MIN TEMP:  34; 6HR MAX TEMP:  45;

MINOT AFB      CLEAR     36  26  68 N2        30.24R
6HR MIN TEMP:  33; 6HR MAX TEMP:  43;

GARRISON         N/A     38  31  76 NE8       30.20S
6HR MIN TEMP:  38; 6HR MAX TEMP:  45;

WILLISTON      CLEAR     37  29  72 N6        30.23R
6HR MIN TEMP:  35; 6HR MAX TEMP:  45;

DICKINSON      CLOUDY    32  26  78 NE8       30.14R WCI  25
6HR MIN TEMP:  32; 6HR MAX TEMP:  38;

HETTINGER      MOCLDY    39  32  76 E7        30.13R
6HR MIN TEMP:  33; 6HR MAX TEMP:  42;

$$

 *****  OTHER OBSERVATIONS NORTHEAST NORTH DAKOTA  *****

CITY           SKY/WX    TMP DP  RH WIND       PRES   REMARKS
WALHALLA       FAIR      34  32  93 NW5       30.32R
LANGDON        FAIR      36  28  75 NE8       30.28R
CAVALIER       FAIR      36  28  75 N3        30.31R
GRAFTON        FAIR      36  32  87 NE7       30.31R
CANDO          FAIR      37  27  65 NE9       30.29R
FORT TOTTEN      N/A     40  31  70 E7        29.95S
ROLLA          FAIR      32  25  74 N8        30.29R WCI  25
RUGBY          FAIR      36  30  80 E8        30.26R
 ***** THE ABOVE OBSERVATIONS ARE NON NWS ARE NOT QUALITY
        CONTROLLED AND MAY MIS-REPORT RAIN FOR SNOW...
$$

 *****  OTHER OBSERVATIONS SOUTHEAST NORTH DAKOTA *****

CITY           SKY/WX    TMP DP  RH WIND       PRES   REMARKS
COOPERSTOWN    NOT AVBL
VALLEY CITY    FAIR      37  36  93 NE5       30.22R
OAKES            N/A    N/A N/A N/A MISG        N/A
GWINNER        FAIR      39  36  87 NE9       30.14F
SHEYENNE NWR     N/A     40  32  74 NE7       29.95S
BUFFALO        NOT AVBL
WYNDMERE         N/A     43  34  70 NE9         N/A
 ***** THE ABOVE OBSERVATIONS ARE NON NWS ARE NOT QUALITY
       CONTROLLED AND MAY MIS-REPORT RAIN FOR SNOW...
$$

  *****  WEATHER ACROSS NORTHERN MINNESOTA  *****

CITY           SKY/WX    TMP DP  RH WIND       PRES   REMARKS
FLAG ISLAND    CLEAR     39  30  70 CALM      30.33R
WARROAD        CLEAR     36  32  87 NE6       30.33R
ROSEAU         CLEAR     34  28  80 NE6       30.31R
HALLOCK        CLEAR     39  30  70 E9        30.30R
THF RVR FALLS  CLEAR     37  30  75 NE8       30.28R
6HR MIN TEMP:  37; 6HR MAX TEMP:  43;

HALSTAD        NOT AVBL
FOSSTON        CLEAR     36  30  80 NE5       30.26R
BAUDETTE       CLEAR     35  29  78 NE5       30.31R
6HR MIN TEMP:  32; 6HR MAX TEMP:  40;

WASKISH        CLEAR     36  32  87 NE6       30.28S
CROOKSTON      CLEAR     37  32  81 E7        30.27R
$$
  *****  WEATHER ACROSS CENTRAL AND WEST MINNESOTA  *****

CITY           SKY/WX    TMP DP  RH WIND       PRES   REMARKS
BEMIDJI        CLEAR     36  32  86 NE8       30.25R
PARK RAPIDS    CLEAR     41  30  65 E8        30.21R
6HR MIN TEMP:  38; 6HR MAX TEMP:  47;

WADENA         CLEAR     37  28  70 NE13      30.17S
DETROIT LAKES  CLEAR     41  32  70 E7        30.20S
MOORHEAD       CLEAR     41  30  65 NE7       30.21S
FERGUS FALLS   CLEAR     41  30  65 E14       30.14F
ELBOW LAKE     FAIR      40  32  73 NE10      30.12F
MORRIS MN      CLOUDY    41  32  70 NE16      30.09S
STAPLES        CLEAR     37  28  70 NE9       30.17S
WHEATON        CLOUDY    43  36  75 NE12G18   30.14S
$$
  *****  WEATHER ELSEWHERE ACROSS MINNESOTA  *****

CITY           SKY/WX    TMP DP  RH WIND       PRES   REMARKS
DULUTH         PTCLDY    38  30  73 E16       30.23R
6HR MIN TEMP:  35; 6HR MAX TEMP:  38;

INTRNTL FALLS  CLEAR     36  32  85 NE7       30.30S
6HR MIN TEMP:  26; 6HR MAX TEMP:  40;

ELY            SUNNY     36  30  80 CALM      30.28R
CLOQUET        CLEAR     39  30  70 E13       30.22S
BRAINERD       CLEAR     38  29  70 NE14      30.19R
6HR MIN TEMP:  35; 6HR MAX TEMP:  43;

HIBBING        CLEAR     34  30  85 NE3       30.25R
6HR MIN TEMP:  27; 6HR MAX TEMP:  37;

ALEXANDRIA     PTCLDY    39  30  70 NE15      30.12F
6HR MIN TEMP:  38; 6HR MAX TEMP:  46;

SAINT CLOUD    PTCLDY    38  30  73 NE14G23   30.12S
6HR MIN TEMP:  38; 6HR MAX TEMP:  45;

MINNEAPOLIS    MOCLDY    43  32  65 NE14      30.09R
6HR MIN TEMP:  42; 6HR MAX TEMP:  49;

$$

  *****  WEATHER ACROSS SOUTH DAKOTA  *****

CITY           SKY/WX    TMP DP  RH WIND       PRES   REMARKS
SIOUX FALLS    CLOUDY    44  37  76 NE22G30   29.91F
6HR MIN TEMP:  42; 6HR MAX TEMP:  44;

BROOKINGS      CLOUDY    42  38  85 NE13      29.97S
WATERTOWN      CLOUDY    39  33  79 NE15      30.02S
6HR MIN TEMP:  35; 6HR MAX TEMP:  41;

HURON          CLOUDY    42  38  85 NE15      30.00S
6HR MIN TEMP:  41; 6HR MAX TEMP:  42;

SISSETON         N/A     39  33  79 E10       30.10S
ABERDEEN       PTCLDY    42  35  76 NE14      30.09R
6HR MIN TEMP:  37; 6HR MAX TEMP:  42;

MITCHELL       CLOUDY    43  39  86 NE13      29.96S
PIERRE         CLOUDY    41  37  86 N14       30.01R
6HR MIN TEMP:  39; 6HR MAX TEMP:  42;

MOBRIDGE       CLOUDY    42  39  89 N12       30.06R
RAPID CITY     CLOUDY    39  37  92 N13       30.04R
6HR MIN TEMP:  39; 6HR MAX TEMP:  41;

$$

  *****  SOME WEATHER IN NEARBY STATES *****

CITY           SKY/WX    TMP DP  RH WIND       PRES   REMARKS
GLASGOW MT     PTCLDY    43  33  68 E13       30.17R
6HR MIN TEMP:  43; 6HR MAX TEMP:  46;

GREAT FALLS MT CLOUDY    36  34  92 W6        30.10R
6HR MIN TEMP:  35; 6HR MAX TEMP:  41;

CHEYENNE WY    LGT SNOW  28  26  92 N8        29.88R FOG     WCI  20
6HR MIN TEMP:  28; 6HR MAX TEMP:  30; 6HR PCP:  0.04;

SCOTTSBLUFF NE LGT SNOW  34  31  88 N13       29.92S FOG     WCI  25
6HR MIN TEMP:  33; 6HR MAX TEMP:  34; 6HR PCP:  0.24;

OMAHA NE       HVY RAIN  46  43  89 VRB7      29.73F FOG
6HR MIN TEMP:  46; 6HR MAX TEMP:  47; 6HR PCP:  0.64;

DES MOINES IA  LGT RAIN  46  42  86 E20G28    29.80F FOG
6HR MIN TEMP:  45; 6HR MAX TEMP:  48; 6HR PCP:  0.19;

DAVENPORT IA   LGT RAIN  45  42  89 E16       29.96F FOG
6HR MIN TEMP:  44; 6HR MAX TEMP:  46; 6HR PCP:  0.01;

CHICAGO IL     CLOUDY    46  42  86 E9        30.07R FOG
6HR MIN TEMP:  43; 6HR MAX TEMP:  46;

EAU CLAIRE WI  MOCLDY    40  35  83 NE7       30.12R
6HR MIN TEMP:  38; 6HR MAX TEMP:  46;

LA CROSSE WI   CLOUDY    44  36  73 E6        30.07F
6HR MIN TEMP:  39; 6HR MAX TEMP:  45;

$$

  *****  SOME NATIONAL WEATHER *****

CITY           SKY/WX    TMP DP  RH WIND       PRES   REMARKS
LA GUARDIA NY  CLOUDY    49  39  68 NE6       30.21S
6HR MIN TEMP:  47; 6HR MAX TEMP:  49;                              C1F1C2F2C3F3C4F4C5F5C6F6C7F7C8F8C9F9CaFaCbFbCcFcCdFdCe!


USA.gov is the U.S. government's official web portal to all federal, state and local government web resources and services.